Regional Weather Roundup
Issued by NWS Sioux Falls, SD

Home | Current Version | Previous Version | Graphics & Text | Print | Product List | Glossary On
Versions: 1 2 3 4 5 6 7 8 9 10 11 12 13 14 15 16 17 18 19 20 21 22 23 24 25 26 27 28 29 30 31 32 33 34 35 36 37 38 39 40 41 42 43 44 45 46 47 48 49 50
000
ASUS43 KFSD 050110
RWRFSD

WEATHER ROUNDUP FOR SE SOUTH DAKOTA/SW MINNESOTA/NW IOWA
NATIONAL WEATHER SERVICE SIOUX FALLS SD
700 PM CST WED MAR 04 2015

NOTE: "FAIR" INDICATES FEW OR NO CLOUDS BELOW 12,000 FEET WITH NO
SIGNIFICANT WEATHER AND OR OBSTRUCTIONS TO VISIBILITY.


SDZ038>040-050-052>070-050200-
SOUTHEAST SOUTH DAKOTA

CITY           SKY/WX    TMP DP  RH WIND       PRES   REMARKS
CHAMBERLAIN    CLEAR      6  -6  56 NW6       30.35R WCI  -4
HURON          CLEAR      1  -6  72 NE6       30.39R WCI -10
MADISON        FAIR      -2  -4  92 NW8       30.33R WCI -17
MITCHELL       CLEAR      4  -6  63 N6        30.40R WCI  -7
SIOUX FALLS    CLEAR      3  -7  63 NW10      30.36R WCI -12
WINNER         FAIR       9  -6  50 NE5       30.32R WCI   1
YANKTON        CLEAR      9  -6  52 NW10      30.40R WCI  -6
$$

MNZ071-072-080-081-089-090-097-098-050200-
SOUTHWEST MINNESOTA

CITY           SKY/WX    TMP DP  RH WIND       PRES   REMARKS
FAIRMONT       CLEAR      5  -8  56 NW14      30.33R WCI -12
JACKSON        PTCLDY     5  -6  61 NW15      30.33R WCI -13
LUVERNE        CLEAR      3  -4  72 NW7       30.36R WCI  -9
MARSHALL       CLEAR      1 -11  55 NW14      30.38R WCI -17
MONTEVIDEO     FAIR       0  -8  71 N7        30.40R WCI -13
PIPESTONE      CLEAR      0  -8  71 N14G21    30.32R WCI -19
REDWOOD FALLS  CLEAR      2  -7  66 NW13      30.38R WCI -15
TRACY          CLEAR      1  -8  66 NW13      30.36R WCI -16
WINDOM         CLEAR      1  -8  66 NW13      30.33R WCI -16
WORTHINGTON    CLEAR      1  -8  66 NW16      30.34R WCI -18
$$

IAZ001>003-012>014-020>022-031-032-NEZ013-014-SDZ071-050200-
NORTHWEST IOWA

CITY           SKY/WX    TMP DP  RH WIND       PRES   REMARKS
CHEROKEE       CLEAR      7  -4  59 N12G17    30.39R WCI  -8
DENISON        CLEAR     12  -4  48 N9G15     30.37R WCI   0
ESTHERVILLE    PTCLDY     4  -4  69 N16       30.33R WCI -15
LE MARS        CLEAR      9  -4  56 N12G17    30.40R WCI  -6
ORANGE CITY    CLEAR      7  -6  56 N13G18    30.36R WCI  -9
SHELDON        CLEAR      5  -8  56 NW17      30.34R WCI -14
SIOUX CITY     CLEAR     13  -3  49 N12       30.41R WCI  -1
SPENCER        PTCLDY     5  -2  72 NW14G23   30.35R WCI -12
STORM LAKE     CLEAR      7  -2  66 NW14G21   30.36R WCI -10
$$

ABBREVIATIONS USED IN REMARKS
   TC - TEMPERATURE IN CELSIUS
  WCI - WIND CHILL INDEX
   HX - HEAT INDEX
  VSB - VISIBILITY




USA.gov is the U.S. government's official web portal to all federal, state and local government web resources and services.